[[{"header":{"parameterUnit":"m.s-1","parameterCategory":1,"la1":30.2991,"la2":30.254,"lo1":-89.0895,"lo2":-89.0444,"dy":0.0017,"dx":0.0017,"nx":28,"ny":28,"refTime":"2025-04-23T21:00:00:Z","depth":0,"parameterNumber":2,"parameterNumberName":"U-component_of_WINDS"},"data":[0,0,0,0,0,0,0,0,0,0,0,0,0,0,0,0,0,0,0,0,0,0,0,0,0,0,0,0,0,0,0,0,0,0,0,0,0,0,0,0,0,0,0,0,0,0,0,0,0,0,0,0,0,0,0,0,0,0,-2.2175,-2.2175,0,-2.2242,-2.2243,-2.2244,-2.2239,-2.2238,-2.2237,-2.2236,-2.2306,-2.2308,-2.2311,0,0,0,0,0,0,0,0,0,0,0,0,0,-2.2041,-2.2043,-2.2174,-2.2175,-2.2176,-2.2242,-2.2243,-2.2244,-2.2239,-2.2238,-2.2236,-2.2235,-2.2305,-2.2308,-2.2311,0,0,0,0,0,0,0,0,0,0,0,0,0,-2.2103,-2.2044,-2.2174,-2.2181,-2.2183,-2.2242,-2.2243,-2.2244,-2.2239,-2.2237,-2.2236,-2.2235,-2.2303,-2.2308,-2.2312,-2.2369,0,0,-2.2325,-2.2326,0,0,0,0,0,0,0,0,-2.2099,-2.2108,-2.218,-2.2181,-2.2183,-2.223,-2.2222,-2.2286,-2.2239,-2.2218,-2.2236,-2.2234,-2.2282,-2.2288,-2.2304,-2.2372,-2.2375,-2.2325,-2.2328,-2.2329,-2.2331,0,0,0,0,0,0,0,-2.2095,-2.2105,-2.2201,-2.2181,-2.2182,-2.2181,-2.2189,-2.2234,-2.2258,-2.2219,-2.2219,-2.2227,-2.2282,-2.23,-2.2305,-2.2376,-2.2325,-2.2329,-2.2331,-2.2333,-2.2494,-2.2495,0,0,0,0,0,0,-2.2089,-2.2101,-2.2199,-2.2203,-2.2136,-2.2185,-2.2193,-2.2217,-2.2257,-2.2262,-2.2229,-2.2227,-2.2293,-2.2301,-2.2308,-2.2376,-2.2329,-2.2333,-2.2336,-2.2492,-2.2494,-2.2496,0,0,0,0,0,0,-2.2086,-2.2098,-2.2196,-2.2152,-2.2165,-2.2189,-2.2216,-2.2219,-2.2236,-2.2264,-2.2268,-2.2242,-2.2292,-2.2302,-2.2353,-2.2379,-2.2335,-2.2339,-2.249,-2.2493,-2.2495,-2.2514,0,0,0,0,0,0,-2.2082,-2.2097,-2.2118,-2.2153,-2.2167,-2.2241,-2.2217,-2.2221,-2.2243,-2.2242,-2.2278,-2.2282,-2.2292,-2.2347,-2.2358,-2.2384,-2.2342,-2.2488,-2.2491,-2.2494,-2.2511,-2.2517,-2.2522,0,0,0,0,0,-2.2078,-2.2121,-2.212,-2.2131,-2.2195,-2.2242,-2.225,-2.2261,-2.2245,-2.2267,-2.2285,-2.2281,-2.2375,-2.2352,-2.2364,-2.2392,-2.2486,-2.249,-2.2494,-2.2509,-2.2516,-2.2522,0,0,0,0,0,0,-2.209,-2.2126,-2.2124,-2.2181,-2.2208,-2.2241,-2.2269,-2.2268,-2.2301,-2.2298,-2.2309,-2.2318,-2.2369,-2.2386,-2.2361,-2.2449,-2.2428,-2.2435,-2.2436,-2.2443,-2.2448,-2.2442,-2.2346,0,0,0,0,0,-2.2099,-2.2134,-2.2164,-2.2211,-2.2225,-2.2245,-2.2266,-2.2271,-2.2301,-2.2312,-2.2334,-2.2363,-2.2398,-2.2422,-2.2456,-2.2514,-2.2522,-2.2539,-2.2545,-2.2549,-2.2554,-2.2586,-2.2593,-2.2509,-2.2509,-2.2509,0,0,-2.2118,-2.2142,-2.2164,-2.2214,-2.2236,-2.2272,-2.2255,-2.2294,-2.2321,-2.2318,-2.2368,-2.2385,-2.2418,-2.2473,-2.2498,-2.2488,-2.2579,-2.2554,-2.2557,-2.256,-2.259,-2.2598,-2.2605,-2.2511,-2.2511,-2.251,0,0,-2.2171,-2.2194,-2.2235,-2.2257,-2.2291,-2.2304,-2.2314,-2.2347,-2.2358,-2.2408,-2.2407,-2.2439,-2.2501,-2.2524,-2.2544,-2.2607,-2.2604,-2.2618,-2.2646,-2.2676,-2.2683,-2.2689,-2.271,-2.2718,-2.2623,-2.2623,-2.2623,0,-2.2191,-2.2245,-2.2256,-2.2295,-2.2317,-2.2317,-2.2358,-2.238,-2.2423,-2.2438,-2.2427,-2.2504,-2.2527,-2.2587,-2.2602,-2.2618,-2.263,-2.2613,-2.2681,-2.2687,-2.2693,-2.2714,-2.2722,-2.2625,-2.2625,-2.2625,-2.2624,0,-2.2268,-2.2306,-2.2335,-2.2376,-2.2402,-2.2442,-2.2459,-2.2483,-2.2487,-2.2501,-2.2552,-2.2579,-2.2618,-2.2633,-2.2637,-2.2694,-2.2687,-2.2678,-2.2657,-2.2702,-2.2722,-2.273,-2.2627,-2.2626,-2.2626,-2.2626,0,0,-2.233,-2.2377,-2.2387,-2.2406,-2.2443,-2.2472,-2.2513,-2.2552,-2.2572,-2.2603,-2.2636,-2.2689,-2.2681,-2.2704,-2.2711,-2.2738,-2.2785,-2.2726,-2.2727,-2.2735,-2.2848,-2.2853,-2.2862,-2.2783,-2.2785,-2.2786,-2.2845,0,-2.2386,-2.2457,-2.2468,-2.2531,-2.2566,-2.2566,-2.2601,-2.2628,-2.2643,-2.2675,-2.2691,-2.2727,-2.2715,-2.2728,-2.2755,-2.2773,-2.2807,-2.2769,-2.2815,-2.2816,-2.2805,-2.2873,-2.2879,-2.2933,-2.2853,-2.2854,-2.2855,0,-2.2462,-2.2493,-2.2559,-2.2591,-2.2607,-2.2638,-2.2674,-2.2705,-2.2735,-2.2744,-2.2769,-2.2773,-2.2815,-2.2793,-2.2851,-2.2825,-2.2845,-2.2856,-2.2859,-2.2863,-2.2837,-2.2877,-2.295,-2.2958,-2.2867,-2.2866,-2.2865,0,-2.2499,-2.2559,-2.2606,-2.2622,-2.2661,-2.2683,-2.27,-2.2729,-2.2751,-2.2783,-2.2798,-2.2835,-2.2854,-2.2883,-2.2896,-2.2879,-2.2953,-2.2933,-2.2961,-2.2961,-2.2976,-2.2975,-2.3052,-2.299,-2.299,-2.299,-2.299,0,-2.2561,-2.2601,-2.2623,-2.2652,-2.2697,-2.2709,-2.2753,-2.277,-2.2796,-2.2828,-2.2831,-2.2861,-2.2878,-2.2911,-2.2922,-2.2967,-2.2977,-2.2985,-2.2987,-2.2984,-2.2983,-2.2996,-2.2992,-2.2992,-2.2992,-2.2991,-2.2991,0,-2.261,-2.2626,-2.2678,-2.271,-2.2719,-2.2751,-2.2779,-2.2807,-2.2822,-2.2862,-2.2873,-2.2896,-2.2934,-2.2951,-2.2999,-2.3006,-2.3058,-2.3058,-2.3048,-2.3048,-2.3076,-2.3072,-2.3163,-2.3175,-2.3107,-2.3107,-2.3108,0,-2.2648,-2.2679,-2.2714,-2.2736,-2.2754,-2.2788,-2.2811,-2.2825,-2.2849,-2.2885,-2.2909,-2.2948,-2.2979,-2.3041,-2.3062,-2.3099,-2.3099,-2.3128,-2.3104,-2.31,-2.3098,-2.3096,-2.3099,-2.3132,-2.3133,-2.3133,-2.3134,0,-2.2713,-2.2719,-2.2752,-2.2787,-2.2814,-2.2843,-2.2871,-2.2889,-2.2907,-2.2933,-2.2972,-2.2997,-2.3045,-2.3084,-2.3121,-2.3139,-2.314,-2.3141,-2.315,-2.3146,-2.3139,-2.3142,-2.3059,-2.3139,-2.3139,-2.3138,-2.3138,-2.3138,-2.2757,-2.2784,-2.2813,-2.2849,-2.2872,-2.2898,-2.2926,-2.2944,-2.2976,-2.3016,-2.3023,-2.3065,-2.3094,-2.3145,-2.3165,-2.3198,-2.319,-2.3203,-2.3206,-2.3208,-2.321,-2.3134,-2.3205,-2.3205,-2.3205,-2.3205,-2.3204,0,-2.2821,-2.284,-2.2873,-2.2912,-2.294,-2.2938,-2.2969,-2.2993,-2.303,-2.3057,-2.3088,-2.3133,-2.317,-2.3194,-2.3232,-2.3254,-2.3255,-2.3263,-2.3261,-2.3265,-2.3214,-2.3203,-2.3261,-2.3261,-2.3261,-2.3261,-2.3261,-2.3261,-2.2858,-2.2903,-2.2913,-2.297,-2.2989,-2.3029,-2.3047,-2.3071,-2.3093,-2.3143,-2.3174,-2.3189,-2.3216,-2.3255,-2.3289,-2.3295,-2.3308,-2.3317,-2.3322,-2.3275,-2.3269,-2.3263,-2.3252,-2.332,-2.332,-2.337,-2.3371,-2.3371]},{"header":{"parameterUnit":"m.s-1","parameterCategory":1,"la1":30.2991,"la2":30.254,"lo1":-89.0895,"lo2":-89.0444,"dy":0.0017,"dx":0.0017,"nx":28,"ny":28,"refTime":"2025-04-23T21:00:00:Z","depth":0,"parameterNumber":3,"parameterNumberName":"V-component_of_WINDS"},"data":[0,0,0,0,0,0,0,0,0,0,0,0,0,0,0,0,0,0,0,0,0,0,0,0,0,0,0,0,0,0,0,0,0,0,0,0,0,0,0,0,0,0,0,0,0,0,0,0,0,0,0,0,0,0,0,0,0,0,3.1638,3.1639,0,3.1716,3.1717,3.1718,3.1709,3.1707,3.1706,3.1705,3.178,3.1784,3.1787,0,0,0,0,0,0,0,0,0,0,0,0,0,3.1478,3.1481,3.1638,3.1639,3.164,3.1716,3.1717,3.1718,3.1709,3.1707,3.1706,3.1704,3.1779,3.1783,3.1787,0,0,0,0,0,0,0,0,0,0,0,0,0,3.1551,3.1482,3.1638,3.1645,3.1646,3.1716,3.1717,3.1718,3.1709,3.1707,3.1705,3.1704,3.1778,3.1783,3.1788,3.1854,0,0,3.1802,3.1804,0,0,0,0,0,0,0,0,3.1547,3.1557,3.1643,3.1644,3.1646,3.1701,3.1688,3.1764,3.171,3.1685,3.1705,3.1703,3.1755,3.1762,3.178,3.1858,3.1861,3.1802,3.1805,3.1807,3.1809,0,0,0,0,0,0,0,3.1542,3.1553,3.1669,3.1644,3.1646,3.1643,3.1651,3.1703,3.1729,3.1687,3.1687,3.1696,3.1756,3.1776,3.1782,3.1862,3.1802,3.1807,3.181,3.1811,3.1999,3.2001,0,0,0,0,0,0,3.1536,3.1549,3.1666,3.1671,3.1591,3.1647,3.1656,3.1685,3.1729,3.1734,3.1698,3.1695,3.1769,3.1776,3.1785,3.1866,3.1807,3.1812,3.1815,3.1997,3.1999,3.2002,0,0,0,0,0,0,3.1532,3.1546,3.1663,3.161,3.1625,3.1652,3.1684,3.1688,3.1708,3.1737,3.1741,3.1713,3.1767,3.1778,3.1837,3.1869,3.1814,3.1818,3.1994,3.1998,3.2001,3.2029,0,0,0,0,0,0,3.1528,3.1545,3.1571,3.1611,3.1628,3.1716,3.1686,3.169,3.1716,3.1714,3.1753,3.1758,3.1767,3.183,3.1842,3.1874,3.1822,3.1992,3.1996,3.2,3.2026,3.2033,3.204,0,0,0,0,0,3.1522,3.1575,3.1573,3.1587,3.1661,3.1718,3.1727,3.1738,3.1719,3.1745,3.1764,3.1756,3.1863,3.1837,3.185,3.1884,3.199,3.1995,3.1999,3.2023,3.2032,3.2039,0,0,0,0,0,0,3.1537,3.1581,3.1578,3.1646,3.1679,3.1716,3.1749,3.1747,3.1784,3.178,3.1791,3.18,3.186,3.1878,3.1847,3.1951,3.1924,3.1931,3.1937,3.1946,3.1953,3.1947,3.1826,0,0,0,0,0,3.1548,3.1592,3.1627,3.1683,3.17,3.1722,3.1747,3.1753,3.1786,3.1799,3.1822,3.1854,3.1895,3.1921,3.196,3.2028,3.2037,3.2058,3.2065,3.2071,3.2077,3.2115,3.2125,3.2017,3.2017,3.2017,0,0,3.1572,3.1601,3.1627,3.1687,3.1713,3.1757,3.1733,3.178,3.1813,3.1806,3.1864,3.1882,3.1918,3.1982,3.2012,3.1999,3.2109,3.2077,3.2081,3.2084,3.2121,3.2131,3.214,3.2021,3.202,3.202,0,0,3.1637,3.1664,3.1714,3.1741,3.1781,3.1795,3.1808,3.1846,3.1858,3.1917,3.1913,3.1951,3.2021,3.2048,3.207,3.2147,3.2141,3.2159,3.2195,3.2231,3.224,3.2247,3.2275,3.2285,3.2165,3.2165,3.2165,0,3.1661,3.1728,3.174,3.1788,3.1814,3.1812,3.1863,3.1888,3.1938,3.1955,3.1941,3.203,3.2053,3.2124,3.2143,3.2161,3.2175,3.2154,3.2238,3.2245,3.2253,3.2279,3.2289,3.2167,3.2167,3.2167,3.2167,0,3.1755,3.1802,3.1837,3.1888,3.1918,3.1967,3.1986,3.2015,3.2018,3.2034,3.2094,3.2123,3.2169,3.2186,3.2189,3.2257,3.2248,3.2236,3.2208,3.2265,3.229,3.23,3.217,3.2169,3.2169,3.2168,0,0,3.1831,3.1889,3.1902,3.1925,3.197,3.2005,3.2054,3.21,3.2125,3.216,3.2201,3.2261,3.225,3.2275,3.2281,3.2313,3.2373,3.2297,3.2298,3.231,3.245,3.2459,3.2471,3.2369,3.2371,3.2373,3.2447,0,3.1901,3.1989,3.2002,3.2079,3.2123,3.2121,3.2164,3.2195,3.2212,3.225,3.2267,3.231,3.2292,3.2308,3.234,3.2359,3.2401,3.2354,3.2407,3.2409,3.2398,3.2484,3.2494,3.2562,3.2457,3.2459,3.246,0,3.1994,3.2034,3.2116,3.2156,3.2174,3.2212,3.2256,3.2293,3.2328,3.2338,3.2367,3.2369,3.2419,3.239,3.2459,3.2427,3.2449,3.2462,3.2465,3.247,3.2438,3.2491,3.2585,3.2595,3.2475,3.2474,3.2473,0,3.2042,3.2115,3.2174,3.2194,3.2242,3.2269,3.2289,3.2323,3.235,3.2388,3.2406,3.2448,3.2471,3.2504,3.2517,3.2495,3.2585,3.2557,3.2594,3.2594,3.2613,3.2611,3.2711,3.2627,3.2627,3.2627,3.2627,0,3.2119,3.2169,3.2196,3.2233,3.2289,3.2303,3.2358,3.2378,3.2408,3.2447,3.2448,3.2485,3.25,3.2539,3.255,3.2605,3.2616,3.2624,3.2626,3.2624,3.2623,3.2639,3.2635,3.263,3.2629,3.2628,3.2628,0,3.2181,3.2202,3.2266,3.2306,3.2318,3.2358,3.2392,3.2426,3.2443,3.2493,3.2505,3.253,3.2576,3.2593,3.2648,3.2656,3.272,3.2718,3.2709,3.2709,3.2745,3.2741,3.2858,3.2874,3.278,3.2781,3.2781,0,3.2229,3.2268,3.2313,3.2341,3.2363,3.2406,3.2435,3.245,3.2479,3.2523,3.2552,3.2599,3.2636,3.271,3.2732,3.2775,3.2774,3.2812,3.278,3.2777,3.2775,3.2773,3.2776,3.2818,3.2819,3.282,3.282,0,3.2312,3.232,3.2362,3.2407,3.2441,3.2477,3.2512,3.2534,3.2554,3.2587,3.2635,3.2664,3.2722,3.2768,3.2811,3.2831,3.2829,3.283,3.2841,3.2839,3.2832,3.2837,3.2725,3.2827,3.2827,3.2826,3.2826,3.2825,3.2368,3.2403,3.2441,3.2487,3.2516,3.2549,3.2584,3.2605,3.2646,3.2695,3.2701,3.2753,3.2787,3.2846,3.2869,3.2909,3.2898,3.2914,3.2918,3.2921,3.2924,3.2826,3.2916,3.2916,3.2916,3.2916,3.2916,0,3.2451,3.2476,3.2519,3.2568,3.2605,3.2601,3.264,3.267,3.2716,3.2749,3.2787,3.2842,3.2887,3.2914,3.2958,3.2985,3.2985,3.2996,3.2994,3.2999,3.2931,3.2917,3.2995,3.2995,3.2995,3.2995,3.2995,3.2995,3.2499,3.2558,3.2571,3.2645,3.2668,3.272,3.2743,3.2773,3.28,3.2862,3.29,3.2917,3.2948,3.2995,3.3036,3.3042,3.3059,3.3071,3.3076,3.3012,3.3004,3.2996,3.2983,3.3074,3.3074,3.3141,3.3142,3.3143]}]]